WA9AFM-10 Weather Reports


time (UTC)temp
F
wind
direction
speed
knots
gust
knots
rain 1hr
in
rain 24hr
in
rain mn
in
humidity
%
barometer
mb
20260506002114 51 149 1.7 8.7 0.00 0.00 0.00 76 1004.7
20260505232113 53 167 0.9 8.7 0.00 0.00 0.00 75 1004.7
20260505225113 53 211 3.5 8.7 0.00 0.00 0.00 76 1003.9
20260505202114 54 135 0.9 8.7 0.00 0.00 0.00 81 1002.9
20260505195114 55 209 6.1 8.7 0.00 0.00 0.00 80 1002.1
20260505185113 57 90 0.9 8.7 0.00 0.00 0.00 81 1001.6
20260505182113 57 221 4.3 8.7 0.00 0.00 0.00 81 1001.3
20260505175114 58 114 0.0 8.7 0.00 0.00 0.00 82 1000.8
20260505172114 58 201 5.2 8.7 0.00 0.00 0.00 83 1000.5
20260505165116 60 208 0.0 8.7 0.00 0.00 0.00 82 999.6
20260505152115 73 210 0.0 8.7 0.00 0.00 0.00 77 996.8
20260505075215 70 318 2.6 8.7 0.00 0.00 0.00 79 994.3
20260505075113 70 318 2.6 8.7 0.00 0.00 0.00 79 994.3
20260505072200 70 347 0.9 8.7 0.00 0.00 0.00 79 994.7
20260505072115 70 347 0.9 8.7 0.00 0.00 0.00 79 994.7
20260505065112 71 45 0.0 8.7 0.00 0.00 0.00 78 995.1
20260505062112 71 303 0.9 8.7 0.00 0.00 0.00 78 995.4
20260505055113 71 1 2.6 8.7 0.00 0.00 0.00 78 995.7
20260505052113 71 16 0.0 8.7 0.00 0.00 0.00 77 995.8
20260505035113 72 331 1.7 8.7 0.00 0.00 0.00 73 996.3
20260505025113 74 343 2.6 8.7 0.00 0.00 0.00 70 996.2
20260505015112 75 350 0.0 8.7 0.00 0.00 0.00 67 996.0
20260505005113 78 16 1.7 8.7 0.00 0.00 0.00 64 996.1